Terug naar catalogus

THORAD AGENA D DEB

ActiefSSO
NORAD 4854·DEBRIS·🇺🇸 United States

Gelanceerd Apr 8, 1970 vanaf Vandenberg Space Force Base

Loading…

Volgende Passages

TLE

Source: Space-Track
1  4854U 70025EJ  26221.53209337  .00000151  00000-0  26962-3 0  9995
2  4854  99.3553  53.7580 0018350  43.0375  19.9866 13.57098859779540

Volg THORAD AGENA D DEB in realtime met AllMySat

Download on the App Store